Year,Month,Day,Hour,Minute,Value (Times are PST for temperature in C)
2016,11,14,00,00,7.90
2016,11,14,00,01,7.90
2016,11,14,00,02,7.90
2016,11,14,00,03,7.90
2016,11,14,00,04,7.80
2016,11,14,00,05,7.80
2016,11,14,00,06,7.80
2016,11,14,00,07,7.80
2016,11,14,00,08,7.80
2016,11,14,00,09,7.70
2016,11,14,00,10,7.70
2016,11,14,00,11,7.70
2016,11,14,00,12,7.70
2016,11,14,00,13,7.60
2016,11,14,00,14,7.60
2016,11,14,00,15,7.60
2016,11,14,00,16,7.60
2016,11,14,00,17,7.50
2016,11,14,00,18,7.50
2016,11,14,00,19,7.50
2016,11,14,00,20,7.40
2016,11,14,00,21,7.40
2016,11,14,00,22,7.40
2016,11,14,00,23,7.40
2016,11,14,00,24,7.40
2016,11,14,00,25,7.30
2016,11,14,00,26,7.30
2016,11,14,00,27,7.30
2016,11,14,00,28,7.30
2016,11,14,00,29,7.20
2016,11,14,00,30,7.20
2016,11,14,00,31,7.20
2016,11,14,00,32,7.20
2016,11,14,00,33,7.20
2016,11,14,00,34,7.20
2016,11,14,00,35,7.20
2016,11,14,00,36,7.20
2016,11,14,00,37,7.20
2016,11,14,00,38,7.10
2016,11,14,00,39,7.10
2016,11,14,00,40,7.10
2016,11,14,00,41,7.20
2016,11,14,00,42,7.20
2016,11,14,00,43,7.20
2016,11,14,00,44,7.20
2016,11,14,00,45,7.20
2016,11,14,00,46,7.20
2016,11,14,00,47,7.20
2016,11,14,00,48,7.20
2016,11,14,00,49,7.20
2016,11,14,00,50,7.20
2016,11,14,00,51,7.20
2016,11,14,00,52,7.10
2016,11,14,00,53,7.10
2016,11,14,00,54,7.10
2016,11,14,00,55,7.10
2016,11,14,00,56,7.10
2016,11,14,00,57,7.00
2016,11,14,00,58,7.00
2016,11,14,00,59,7.00
2016,11,14,01,00,6.90
2016,11,14,01,01,6.90
2016,11,14,01,02,6.90
2016,11,14,01,03,6.80
2016,11,14,01,04,6.80
2016,11,14,01,05,6.80
2016,11,14,01,06,6.70
2016,11,14,01,07,6.70
2016,11,14,01,08,6.70
2016,11,14,01,09,6.70
2016,11,14,01,10,6.60
2016,11,14,01,11,6.60
2016,11,14,01,12,6.60
2016,11,14,01,13,6.60
2016,11,14,01,14,6.50
2016,11,14,01,15,6.50
2016,11,14,01,16,6.50
2016,11,14,01,17,6.40
2016,11,14,01,18,6.40
2016,11,14,01,19,6.40
2016,11,14,01,20,6.40
2016,11,14,01,21,6.40
2016,11,14,01,22,6.40
2016,11,14,01,23,6.40
2016,11,14,01,24,6.30
2016,11,14,01,25,6.30
2016,11,14,01,26,6.30
2016,11,14,01,27,6.30
2016,11,14,01,28,6.20
2016,11,14,01,29,6.20
2016,11,14,01,30,6.20
2016,11,14,01,31,6.10
2016,11,14,01,32,6.10
2016,11,14,01,33,6.10
2016,11,14,01,34,6.10
2016,11,14,01,35,6.00
2016,11,14,01,36,6.00
2016,11,14,01,37,6.00
2016,11,14,01,38,6.00
2016,11,14,01,39,6.00
2016,11,14,01,40,5.90
2016,11,14,01,41,5.90
2016,11,14,01,42,5.90
2016,11,14,01,43,5.90
2016,11,14,01,44,5.90
2016,11,14,01,45,5.90
2016,11,14,01,46,5.80
2016,11,14,01,47,5.80
2016,11,14,01,48,5.80
2016,11,14,01,49,5.80
2016,11,14,01,50,5.80
2016,11,14,01,51,5.80
2016,11,14,01,52,5.70
2016,11,14,01,53,5.70
2016,11,14,01,54,5.70
2016,11,14,01,55,5.70
2016,11,14,01,56,5.70
2016,11,14,01,57,5.70
2016,11,14,01,58,5.60
2016,11,14,01,59,5.60
2016,11,14,02,00,5.60
2016,11,14,02,01,5.60
2016,11,14,02,02,5.60
2016,11,14,02,03,5.60
2016,11,14,02,04,5.60
2016,11,14,02,05,5.60
2016,11,14,02,06,5.60
2016,11,14,02,07,5.60
2016,11,14,02,08,5.60
2016,11,14,02,09,5.60
2016,11,14,02,10,5.60
2016,11,14,02,11,5.60
2016,11,14,02,12,5.60
2016,11,14,02,13,5.60
2016,11,14,02,14,5.60
2016,11,14,02,15,5.60
2016,11,14,02,16,5.60
2016,11,14,02,17,5.70
2016,11,14,02,18,5.70
2016,11,14,02,19,5.70
2016,11,14,02,20,5.70
2016,11,14,02,21,5.70
2016,11,14,02,22,5.70
2016,11,14,02,23,5.70
2016,11,14,02,24,5.70
2016,11,14,02,25,5.70
2016,11,14,02,26,5.70
2016,11,14,02,27,5.60
2016,11,14,02,28,5.60
2016,11,14,02,29,5.60
2016,11,14,02,30,5.60
2016,11,14,02,31,5.60
2016,11,14,02,32,5.60
2016,11,14,02,33,5.50
2016,11,14,02,34,5.50
2016,11,14,02,35,5.50
2016,11,14,02,36,5.50
2016,11,14,02,37,5.40
2016,11,14,02,38,5.40
2016,11,14,02,39,5.40
2016,11,14,02,40,5.40
2016,11,14,02,41,5.40
2016,11,14,02,42,5.30
2016,11,14,02,43,5.30
2016,11,14,02,44,5.30
2016,11,14,02,45,5.30
2016,11,14,02,46,5.20
2016,11,14,02,47,5.20
2016,11,14,02,48,5.20
2016,11,14,02,49,5.20
2016,11,14,02,50,5.20
2016,11,14,02,51,5.20
2016,11,14,02,52,5.20
2016,11,14,02,53,5.20
2016,11,14,02,54,5.10
2016,11,14,02,55,5.10
2016,11,14,02,56,5.10
2016,11,14,02,57,5.10
2016,11,14,02,58,5.10
2016,11,14,02,59,5.00
2016,11,14,03,00,5.00
2016,11,14,03,01,5.00
2016,11,14,03,02,5.00
2016,11,14,03,03,4.90
2016,11,14,03,04,4.90
2016,11,14,03,05,4.90
2016,11,14,03,06,4.90
2016,11,14,03,07,4.90
2016,11,14,03,08,4.90
2016,11,14,03,09,4.90
2016,11,14,03,10,4.80
2016,11,14,03,11,4.80
2016,11,14,03,12,4.80
2016,11,14,03,13,4.90
2016,11,14,03,14,4.90
2016,11,14,03,15,4.90
2016,11,14,03,16,4.90
2016,11,14,03,17,4.90
2016,11,14,03,18,4.90
2016,11,14,03,19,4.90
2016,11,14,03,20,4.90
2016,11,14,03,21,4.90
2016,11,14,03,22,4.90
2016,11,14,03,23,4.90
2016,11,14,03,24,4.90
2016,11,14,03,25,4.90
2016,11,14,03,26,4.90
2016,11,14,03,27,4.90
2016,11,14,03,28,4.90
2016,11,14,03,29,4.90
2016,11,14,03,30,4.90
2016,11,14,03,31,4.90
2016,11,14,03,32,4.90
2016,11,14,03,33,4.90
2016,11,14,03,34,4.90
2016,11,14,03,35,4.90
2016,11,14,03,36,4.90
2016,11,14,03,37,4.90
2016,11,14,03,38,4.90
2016,11,14,03,39,4.90
2016,11,14,03,40,4.80
2016,11,14,03,41,4.80
2016,11,14,03,42,4.80
2016,11,14,03,43,4.80
2016,11,14,03,44,4.80
2016,11,14,03,45,4.80
2016,11,14,03,46,4.80
2016,11,14,03,47,4.80
2016,11,14,03,48,4.80
2016,11,14,03,49,4.80
2016,11,14,03,50,4.80
2016,11,14,03,51,4.80
2016,11,14,03,52,4.80
2016,11,14,03,53,4.80
2016,11,14,03,54,4.80
2016,11,14,03,55,4.80
2016,11,14,03,56,4.80
2016,11,14,03,57,4.80
2016,11,14,03,58,4.80
2016,11,14,03,59,4.80
2016,11,14,04,00,4.80
2016,11,14,04,01,4.80
2016,11,14,04,02,4.80
2016,11,14,04,03,4.80
2016,11,14,04,04,4.80
2016,11,14,04,05,4.80
2016,11,14,04,06,4.80
2016,11,14,04,07,4.80
2016,11,14,04,08,4.80
2016,11,14,04,09,4.80
2016,11,14,04,10,4.80
2016,11,14,04,11,4.80
2016,11,14,04,12,4.80
2016,11,14,04,13,4.70
2016,11,14,04,14,4.70
2016,11,14,04,15,4.70
2016,11,14,04,16,4.70
2016,11,14,04,17,4.70
2016,11,14,04,18,4.70
2016,11,14,04,19,4.70
2016,11,14,04,20,4.70
2016,11,14,04,21,4.70
2016,11,14,04,22,4.70
2016,11,14,04,23,4.70
2016,11,14,04,24,4.70
2016,11,14,04,25,4.70
2016,11,14,04,26,4.70
2016,11,14,04,27,4.70
2016,11,14,04,28,4.60
2016,11,14,04,29,4.60
2016,11,14,04,30,4.60
2016,11,14,04,31,4.60
2016,11,14,04,32,4.60
2016,11,14,04,33,4.60
2016,11,14,04,34,4.60
2016,11,14,04,35,4.50
2016,11,14,04,36,4.50
2016,11,14,04,37,4.50
2016,11,14,04,38,4.50
2016,11,14,04,39,4.40
2016,11,14,04,40,4.40
2016,11,14,04,41,4.40
2016,11,14,04,42,4.40
2016,11,14,04,43,4.40
2016,11,14,04,44,4.30
2016,11,14,04,45,4.30
2016,11,14,04,46,4.30
2016,11,14,04,47,4.30
2016,11,14,04,48,4.30
2016,11,14,04,49,4.30
2016,11,14,04,50,4.30
2016,11,14,04,51,4.20
2016,11,14,04,52,4.20
2016,11,14,04,53,4.20
2016,11,14,04,54,4.20
2016,11,14,04,55,4.20
2016,11,14,04,56,4.20
2016,11,14,04,57,4.20
2016,11,14,04,58,4.20
2016,11,14,04,59,4.20
2016,11,14,05,00,4.20
2016,11,14,05,01,4.20
2016,11,14,05,02,4.20
2016,11,14,05,03,4.20
2016,11,14,05,04,4.20
2016,11,14,05,05,4.20
2016,11,14,05,06,4.20
2016,11,14,05,07,4.20
2016,11,14,05,08,4.20
2016,11,14,05,09,4.20
2016,11,14,05,10,4.20
2016,11,14,05,11,4.20
2016,11,14,05,12,4.20
2016,11,14,05,13,4.20
2016,11,14,05,14,4.20
2016,11,14,05,15,4.20
2016,11,14,05,16,4.20
2016,11,14,05,17,4.20
2016,11,14,05,18,4.10
2016,11,14,05,19,4.10
2016,11,14,05,20,4.10
2016,11,14,05,21,4.10
2016,11,14,05,22,4.10
2016,11,14,05,23,4.10
2016,11,14,05,24,4.10
2016,11,14,05,25,4.10
2016,11,14,05,26,4.10
2016,11,14,05,27,4.10
2016,11,14,05,28,4.10
2016,11,14,05,29,4.00
2016,11,14,05,30,4.00
2016,11,14,05,31,4.00
2016,11,14,05,32,4.00
2016,11,14,05,33,4.00
2016,11,14,05,34,4.00
2016,11,14,05,35,4.00
2016,11,14,05,36,3.90
2016,11,14,05,37,3.90
2016,11,14,05,38,3.90
2016,11,14,05,39,3.90
2016,11,14,05,40,3.90
2016,11,14,05,41,3.90
2016,11,14,05,42,3.90
2016,11,14,05,43,4.00
2016,11,14,05,44,4.00
2016,11,14,05,45,4.00
2016,11,14,05,46,4.00
2016,11,14,05,47,4.00
2016,11,14,05,48,4.00
2016,11,14,05,49,4.00
2016,11,14,05,50,4.00
2016,11,14,05,51,4.00
2016,11,14,05,52,4.00
2016,11,14,05,53,4.00
2016,11,14,05,54,4.00
2016,11,14,05,55,4.00
2016,11,14,05,56,4.10
2016,11,14,05,57,4.00
2016,11,14,05,58,4.00
2016,11,14,05,59,4.10
2016,11,14,06,00,4.10
2016,11,14,06,01,4.10
2016,11,14,06,02,4.10
2016,11,14,06,03,4.10
2016,11,14,06,04,4.10
2016,11,14,06,05,4.10
2016,11,14,06,06,4.10
2016,11,14,06,07,4.00
2016,11,14,06,08,4.00
2016,11,14,06,09,4.00
2016,11,14,06,10,4.00
2016,11,14,06,11,4.00
2016,11,14,06,12,4.00
2016,11,14,06,13,4.00
2016,11,14,06,14,4.00
2016,11,14,06,15,4.00
2016,11,14,06,16,4.00
2016,11,14,06,17,4.00
2016,11,14,06,18,4.10
2016,11,14,06,19,4.10
2016,11,14,06,20,4.10
2016,11,14,06,21,4.10
2016,11,14,06,22,4.10
2016,11,14,06,23,4.10
2016,11,14,06,24,4.10
2016,11,14,06,25,4.10
2016,11,14,06,26,4.10
2016,11,14,06,27,4.10
2016,11,14,06,28,4.10
2016,11,14,06,29,4.10
2016,11,14,06,30,4.10
2016,11,14,06,31,4.10
2016,11,14,06,32,4.20
2016,11,14,06,33,4.20
2016,11,14,06,34,4.20
2016,11,14,06,35,4.20
2016,11,14,06,36,4.20
2016,11,14,06,37,4.20
2016,11,14,06,38,4.20
2016,11,14,06,39,4.20
2016,11,14,06,40,4.20
2016,11,14,06,41,4.20
2016,11,14,06,42,4.20
2016,11,14,06,43,4.20
2016,11,14,06,44,4.20
2016,11,14,06,45,4.20
2016,11,14,06,46,4.20
2016,11,14,06,47,4.20
2016,11,14,06,48,4.20
2016,11,14,06,49,4.20
2016,11,14,06,50,4.20
2016,11,14,06,51,4.20
2016,11,14,06,52,4.20
2016,11,14,06,53,4.20
2016,11,14,06,54,4.20
2016,11,14,06,55,4.20
2016,11,14,06,56,4.20
2016,11,14,06,57,4.20
2016,11,14,06,58,4.20
2016,11,14,06,59,4.20
2016,11,14,07,00,4.10
2016,11,14,07,01,4.10
2016,11,14,07,02,4.10
2016,11,14,07,03,4.10
2016,11,14,07,04,4.10
2016,11,14,07,05,4.10
2016,11,14,07,06,4.10
2016,11,14,07,07,4.10
2016,11,14,07,08,4.10
2016,11,14,07,09,4.10
2016,11,14,07,10,4.10
2016,11,14,07,11,4.00
2016,11,14,07,12,4.00
2016,11,14,07,13,4.00
2016,11,14,07,14,4.00
2016,11,14,07,15,4.00
2016,11,14,07,16,4.00
2016,11,14,07,17,3.90
2016,11,14,07,18,3.90
2016,11,14,07,19,3.90
2016,11,14,07,20,3.90
2016,11,14,07,21,3.90
2016,11,14,07,22,3.90
2016,11,14,07,23,3.90
2016,11,14,07,24,3.90
2016,11,14,07,25,3.90
2016,11,14,07,26,3.90
2016,11,14,07,27,3.90
2016,11,14,07,28,3.90
2016,11,14,07,29,3.90
2016,11,14,07,30,3.90
2016,11,14,07,31,3.90
2016,11,14,07,32,3.90
2016,11,14,07,33,3.90
2016,11,14,07,34,3.90
2016,11,14,07,35,3.90
2016,11,14,07,36,3.90
2016,11,14,07,37,3.90
2016,11,14,07,38,3.90
2016,11,14,07,39,4.00
2016,11,14,07,40,4.00
2016,11,14,07,41,4.10
2016,11,14,07,42,4.10
2016,11,14,07,43,4.10
2016,11,14,07,44,4.20
2016,11,14,07,45,4.20
2016,11,14,07,46,4.30
2016,11,14,07,47,4.30
2016,11,14,07,48,4.30
2016,11,14,07,49,4.30
2016,11,14,07,50,4.30
2016,11,14,07,51,4.30
2016,11,14,07,52,4.30
2016,11,14,07,53,4.40
2016,11,14,07,54,4.40
2016,11,14,07,55,4.40
2016,11,14,07,56,4.40
2016,11,14,07,57,4.40
2016,11,14,07,58,4.50
2016,11,14,07,59,4.50
2016,11,14,08,00,4.50
2016,11,14,08,01,4.60
2016,11,14,08,02,4.60
2016,11,14,08,03,4.60
2016,11,14,08,04,4.60
2016,11,14,08,05,4.60
2016,11,14,08,06,4.60
2016,11,14,08,07,4.60
2016,11,14,08,08,4.60
2016,11,14,08,09,4.60
2016,11,14,08,10,4.60
2016,11,14,08,11,4.60
2016,11,14,08,12,4.60
2016,11,14,08,13,4.60
2016,11,14,08,14,4.50
2016,11,14,08,15,4.50
2016,11,14,08,16,4.50
2016,11,14,08,17,4.50
2016,11,14,08,18,4.50
2016,11,14,08,19,4.40
2016,11,14,08,20,4.40
2016,11,14,08,21,4.40
2016,11,14,08,22,4.40
2016,11,14,08,23,4.40
2016,11,14,08,24,4.40
2016,11,14,08,25,4.40
2016,11,14,08,26,4.40
2016,11,14,08,27,4.40
2016,11,14,08,28,4.40
2016,11,14,08,29,4.40
2016,11,14,08,30,4.40
2016,11,14,08,31,4.40
2016,11,14,08,32,4.40
2016,11,14,08,33,4.40
2016,11,14,08,34,4.40
2016,11,14,08,35,4.40
2016,11,14,08,36,4.40
2016,11,14,08,37,4.40
2016,11,14,08,38,4.50
2016,11,14,08,39,4.50
2016,11,14,08,40,4.50
2016,11,14,08,41,4.50
2016,11,14,08,42,4.50
2016,11,14,08,43,4.50
2016,11,14,08,44,4.50
2016,11,14,08,45,4.50
2016,11,14,08,46,4.50
2016,11,14,08,47,4.60
2016,11,14,08,48,4.60
2016,11,14,08,49,4.60
2016,11,14,08,50,4.60
2016,11,14,08,51,4.60
2016,11,14,08,52,4.60
2016,11,14,08,53,4.60
2016,11,14,08,54,4.60
2016,11,14,08,55,4.60
2016,11,14,08,56,4.60
2016,11,14,08,57,4.60
2016,11,14,08,58,4.60
2016,11,14,08,59,4.70
2016,11,14,09,00,4.70
2016,11,14,09,01,4.70
2016,11,14,09,02,4.80
2016,11,14,09,03,4.90
2016,11,14,09,04,5.00
2016,11,14,09,05,5.10
2016,11,14,09,06,5.20
2016,11,14,09,07,5.30
2016,11,14,09,08,5.40
2016,11,14,09,09,5.40
2016,11,14,09,10,5.50
2016,11,14,09,11,5.50
2016,11,14,09,12,5.50
2016,11,14,09,13,5.60
2016,11,14,09,14,5.60
2016,11,14,09,15,5.60
2016,11,14,09,16,5.70
2016,11,14,09,17,5.70
2016,11,14,09,18,5.70
2016,11,14,09,19,5.70
2016,11,14,09,20,5.80
2016,11,14,09,21,5.80
2016,11,14,09,22,5.80
2016,11,14,09,23,5.90
2016,11,14,09,24,5.90
2016,11,14,09,25,5.90
2016,11,14,09,26,5.90
2016,11,14,09,27,5.90
2016,11,14,09,28,5.90
2016,11,14,09,29,6.00
2016,11,14,09,30,6.00
2016,11,14,09,31,6.10
2016,11,14,09,32,6.10
2016,11,14,09,33,6.10
2016,11,14,09,34,6.10
2016,11,14,09,35,6.10
2016,11,14,09,36,6.20
2016,11,14,09,37,6.20
2016,11,14,09,38,6.20
2016,11,14,09,39,6.20
2016,11,14,09,40,6.20
2016,11,14,09,41,6.30
2016,11,14,09,42,6.30
2016,11,14,09,43,6.40
2016,11,14,09,44,6.50
2016,11,14,09,45,6.50
2016,11,14,09,46,6.60
2016,11,14,09,47,6.60
2016,11,14,09,48,6.60
2016,11,14,09,49,6.70
2016,11,14,09,50,6.70
2016,11,14,09,51,6.70
2016,11,14,09,52,6.70
2016,11,14,09,53,6.70
2016,11,14,09,54,6.80
2016,11,14,09,55,6.80
2016,11,14,09,56,6.80
2016,11,14,09,57,6.90
2016,11,14,09,58,6.90
2016,11,14,09,59,6.90
2016,11,14,10,00,7.00
2016,11,14,10,01,7.00
2016,11,14,10,02,7.10
2016,11,14,10,03,7.20
2016,11,14,10,04,7.30
2016,11,14,10,05,7.30
2016,11,14,10,06,7.30
2016,11,14,10,07,7.40
2016,11,14,10,08,7.40
2016,11,14,10,09,7.40
2016,11,14,10,10,7.50
2016,11,14,10,11,7.50
2016,11,14,10,12,7.50
2016,11,14,10,13,7.60
2016,11,14,10,14,7.60
2016,11,14,10,15,7.70
2016,11,14,10,16,7.70
2016,11,14,10,17,7.80
2016,11,14,10,18,7.80
2016,11,14,10,19,7.90
2016,11,14,10,20,8.00
2016,11,14,10,21,8.00
2016,11,14,10,22,8.10
2016,11,14,10,23,8.10
2016,11,14,10,24,8.10
2016,11,14,10,25,8.10
2016,11,14,10,26,8.10
2016,11,14,10,27,8.20
2016,11,14,10,28,8.20
2016,11,14,10,29,8.20
2016,11,14,10,30,8.30
2016,11,14,10,31,8.30
2016,11,14,10,32,8.30
2016,11,14,10,33,8.30
2016,11,14,10,34,8.30
2016,11,14,10,35,8.40
2016,11,14,10,36,8.40
2016,11,14,10,37,8.50
2016,11,14,10,38,8.50
2016,11,14,10,39,8.50
2016,11,14,10,40,8.60
2016,11,14,10,41,8.60
2016,11,14,10,42,8.60
2016,11,14,10,43,8.70
2016,11,14,10,44,8.70
2016,11,14,10,45,8.70
2016,11,14,10,46,8.80
2016,11,14,10,47,8.80
2016,11,14,10,48,8.80
2016,11,14,10,49,8.90
2016,11,14,10,50,8.90
2016,11,14,10,51,9.00
2016,11,14,10,52,9.00
2016,11,14,10,53,9.00
2016,11,14,10,54,9.10
2016,11,14,10,55,9.10
2016,11,14,10,56,9.20
2016,11,14,10,57,9.30
2016,11,14,10,58,9.30
2016,11,14,10,59,9.40
2016,11,14,11,00,9.40
2016,11,14,11,01,9.50
2016,11,14,11,02,9.50
2016,11,14,11,03,9.50
2016,11,14,11,04,9.60
2016,11,14,11,05,9.60
2016,11,14,11,06,9.70
2016,11,14,11,07,9.80
2016,11,14,11,08,9.90
2016,11,14,11,09,9.90
2016,11,14,11,10,9.90
2016,11,14,11,11,9.90
2016,11,14,11,12,9.90
2016,11,14,11,13,9.80
2016,11,14,11,14,9.80
2016,11,14,11,15,9.70
2016,11,14,11,16,9.70
2016,11,14,11,17,9.70
2016,11,14,11,18,9.70
2016,11,14,11,19,9.70
2016,11,14,11,20,9.70
2016,11,14,11,21,9.80
2016,11,14,11,22,9.80
2016,11,14,11,23,9.80
2016,11,14,11,24,9.70
2016,11,14,11,25,9.70
2016,11,14,11,26,9.70
2016,11,14,11,27,9.70
2016,11,14,11,28,9.70
2016,11,14,11,29,9.70
2016,11,14,11,30,9.70
2016,11,14,11,31,9.70
2016,11,14,11,32,9.70
2016,11,14,11,33,9.70
2016,11,14,11,34,9.70
2016,11,14,11,35,9.70
2016,11,14,11,36,9.70
2016,11,14,11,37,9.70
2016,11,14,11,38,9.70
2016,11,14,11,39,9.80
2016,11,14,11,40,9.80
2016,11,14,11,41,9.80
2016,11,14,11,42,9.80
2016,11,14,11,43,9.90
2016,11,14,11,44,9.90
2016,11,14,11,45,9.90
2016,11,14,11,46,9.90
2016,11,14,11,47,10.00
2016,11,14,11,48,10.00
2016,11,14,11,49,10.10
2016,11,14,11,50,10.10
2016,11,14,11,51,10.20
2016,11,14,11,52,10.20
2016,11,14,11,53,10.20
2016,11,14,11,54,10.30
2016,11,14,11,55,10.30
2016,11,14,11,56,10.30
2016,11,14,11,57,10.40
2016,11,14,11,58,10.40
2016,11,14,11,59,10.50
2016,11,14,12,00,10.50
2016,11,14,12,01,10.60
2016,11,14,12,02,10.60
2016,11,14,12,03,10.70
2016,11,14,12,04,10.70
2016,11,14,12,05,10.70
2016,11,14,12,06,10.70
2016,11,14,12,07,10.70
2016,11,14,12,08,10.70
2016,11,14,12,09,10.70
2016,11,14,12,10,10.70
2016,11,14,12,11,10.80
2016,11,14,12,12,10.80
2016,11,14,12,13,10.80
2016,11,14,12,14,10.80
2016,11,14,12,15,10.80
2016,11,14,12,16,10.80
2016,11,14,12,17,10.80
2016,11,14,12,18,10.80
2016,11,14,12,19,10.90
2016,11,14,12,20,10.90
2016,11,14,12,21,10.90
2016,11,14,12,22,11.00
2016,11,14,12,23,11.00
2016,11,14,12,24,10.90
2016,11,14,12,25,10.90
2016,11,14,12,26,10.90
2016,11,14,12,27,10.90
2016,11,14,12,28,10.90
2016,11,14,12,29,10.90
2016,11,14,12,30,10.90
2016,11,14,12,31,10.90
2016,11,14,12,32,10.90
2016,11,14,12,33,10.90
2016,11,14,12,34,10.90
2016,11,14,12,35,10.90
2016,11,14,12,36,10.80
2016,11,14,12,37,10.80
2016,11,14,12,38,10.80
2016,11,14,12,39,10.70
2016,11,14,12,40,10.70
2016,11,14,12,41,10.60
2016,11,14,12,42,10.60
2016,11,14,12,43,10.60
2016,11,14,12,44,10.50
2016,11,14,12,45,10.50
2016,11,14,12,46,10.50
2016,11,14,12,47,10.50
2016,11,14,12,48,10.50
2016,11,14,12,49,10.40
2016,11,14,12,50,10.40
2016,11,14,12,51,10.40
2016,11,14,12,52,10.40
2016,11,14,12,53,10.40
2016,11,14,12,54,10.40
2016,11,14,12,55,10.40
2016,11,14,12,56,10.40
2016,11,14,12,57,10.40
2016,11,14,12,58,10.40
2016,11,14,12,59,10.40
2016,11,14,13,00,10.40
2016,11,14,13,01,10.40
2016,11,14,13,02,10.50
2016,11,14,13,03,10.50
2016,11,14,13,04,10.60
2016,11,14,13,05,10.50
2016,11,14,13,06,10.50
2016,11,14,13,07,10.50
2016,11,14,13,08,10.60
2016,11,14,13,09,10.60
2016,11,14,13,10,10.60
2016,11,14,13,11,10.60
2016,11,14,13,12,10.60
2016,11,14,13,13,10.60
2016,11,14,13,14,10.60
2016,11,14,13,15,10.60
2016,11,14,13,16,10.60
2016,11,14,13,17,10.60
2016,11,14,13,18,10.60
2016,11,14,13,19,10.60
2016,11,14,13,20,10.60
2016,11,14,13,21,10.60
2016,11,14,13,22,10.60
2016,11,14,13,23,10.60
2016,11,14,13,24,10.60
2016,11,14,13,25,10.60
2016,11,14,13,26,10.70
2016,11,14,13,27,10.70
2016,11,14,13,28,10.70
2016,11,14,13,29,10.70
2016,11,14,13,30,10.70
2016,11,14,13,31,10.70
2016,11,14,13,32,10.80
2016,11,14,13,33,10.80
2016,11,14,13,34,10.80
2016,11,14,13,35,10.80
2016,11,14,13,36,10.90
2016,11,14,13,37,10.90
2016,11,14,13,38,11.00
2016,11,14,13,39,11.00
2016,11,14,13,40,11.00
2016,11,14,13,41,11.10
2016,11,14,13,42,11.10
2016,11,14,13,43,11.10
2016,11,14,13,44,11.20
2016,11,14,13,45,11.20
2016,11,14,13,46,11.30
2016,11,14,13,47,11.30
2016,11,14,13,48,11.30
2016,11,14,13,49,11.30
2016,11,14,13,50,11.30
2016,11,14,13,51,11.30
2016,11,14,13,52,11.30
2016,11,14,13,53,11.30
2016,11,14,13,54,11.30
2016,11,14,13,55,11.30
2016,11,14,13,56,11.30
2016,11,14,13,57,11.30
2016,11,14,13,58,11.30
2016,11,14,13,59,11.30
2016,11,14,14,00,11.30
2016,11,14,14,01,11.30
2016,11,14,14,02,11.30
2016,11,14,14,03,11.30
2016,11,14,14,04,11.30
2016,11,14,14,05,11.30
2016,11,14,14,06,11.30
2016,11,14,14,07,11.30
2016,11,14,14,08,11.30
2016,11,14,14,09,11.30
2016,11,14,14,10,11.30
2016,11,14,14,11,11.30
2016,11,14,14,12,11.30
2016,11,14,14,13,11.20
2016,11,14,14,14,11.20
2016,11,14,14,15,11.20
2016,11,14,14,16,11.20
2016,11,14,14,17,11.20
2016,11,14,14,18,11.20
2016,11,14,14,19,11.20
2016,11,14,14,20,11.20
2016,11,14,14,21,11.20
2016,11,14,14,22,11.20
2016,11,14,14,23,11.20
2016,11,14,14,24,11.10
2016,11,14,14,25,11.10
2016,11,14,14,26,11.10
2016,11,14,14,27,11.10
2016,11,14,14,28,11.10
2016,11,14,14,29,11.10
2016,11,14,14,30,11.10
2016,11,14,14,31,11.10
2016,11,14,14,32,11.10
2016,11,14,14,33,11.10
2016,11,14,14,34,11.10
2016,11,14,14,35,11.10
2016,11,14,14,36,11.10
2016,11,14,14,37,11.10
2016,11,14,14,38,11.10
2016,11,14,14,39,11.00
2016,11,14,14,40,11.00
2016,11,14,14,41,11.00
2016,11,14,14,42,10.90
2016,11,14,14,43,10.90
2016,11,14,14,44,10.90
2016,11,14,14,45,10.90
2016,11,14,14,46,10.90
2016,11,14,14,47,10.90
2016,11,14,14,48,10.90
2016,11,14,14,49,10.80
2016,11,14,14,50,10.80
2016,11,14,14,51,10.80
2016,11,14,14,52,10.80
2016,11,14,14,53,10.70
2016,11,14,14,54,10.70
2016,11,14,14,55,10.70
2016,11,14,14,56,10.70
2016,11,14,14,57,10.70
2016,11,14,14,58,10.70
2016,11,14,14,59,10.60
2016,11,14,15,00,10.60
2016,11,14,15,01,10.60
2016,11,14,15,02,10.60
2016,11,14,15,03,10.60
2016,11,14,15,04,10.60
2016,11,14,15,05,10.60
2016,11,14,15,06,10.60
2016,11,14,15,07,10.60
2016,11,14,15,08,10.60
2016,11,14,15,09,10.60
2016,11,14,15,10,10.60
2016,11,14,15,11,10.50
2016,11,14,15,12,10.50
2016,11,14,15,13,10.50
2016,11,14,15,14,10.50
2016,11,14,15,15,10.40
2016,11,14,15,16,10.40
2016,11,14,15,17,10.40
2016,11,14,15,18,10.40
2016,11,14,15,19,10.40
2016,11,14,15,20,10.40
2016,11,14,15,21,10.40
2016,11,14,15,22,10.40
2016,11,14,15,23,10.40
2016,11,14,15,24,10.40
2016,11,14,15,25,10.30
2016,11,14,15,26,10.30
2016,11,14,15,27,10.30
2016,11,14,15,28,10.30
2016,11,14,15,29,10.30
2016,11,14,15,30,10.30
2016,11,14,15,31,10.30
2016,11,14,15,32,10.30
2016,11,14,15,33,10.30
2016,11,14,15,34,10.30
2016,11,14,15,35,10.30
2016,11,14,15,36,10.30
2016,11,14,15,37,10.30
2016,11,14,15,38,10.20
2016,11,14,15,39,10.20
2016,11,14,15,40,10.20
2016,11,14,15,41,10.20
2016,11,14,15,42,10.20
2016,11,14,15,43,10.20
2016,11,14,15,44,10.20
2016,11,14,15,45,10.20
2016,11,14,15,46,10.10
2016,11,14,15,47,10.10
2016,11,14,15,48,10.10
2016,11,14,15,49,10.10
2016,11,14,15,50,10.10
2016,11,14,15,51,10.10
2016,11,14,15,52,10.10
2016,11,14,15,53,10.10
2016,11,14,15,54,10.10
2016,11,14,15,55,10.10
2016,11,14,15,56,10.10
2016,11,14,15,57,10.10
2016,11,14,15,58,10.10
2016,11,14,15,59,10.10
2016,11,14,16,00,10.10
2016,11,14,16,01,10.10
2016,11,14,16,02,10.00
2016,11,14,16,03,10.00
2016,11,14,16,04,10.00
2016,11,14,16,05,10.00
2016,11,14,16,06,10.00
2016,11,14,16,07,10.00
2016,11,14,16,08,10.00
2016,11,14,16,09,10.00
2016,11,14,16,10,10.00
2016,11,14,16,11,9.90
2016,11,14,16,12,9.90
2016,11,14,16,13,9.90
2016,11,14,16,14,9.90
2016,11,14,16,15,9.90
2016,11,14,16,16,9.90
2016,11,14,16,17,9.80
2016,11,14,16,18,9.80
2016,11,14,16,19,9.80
2016,11,14,16,20,9.80
2016,11,14,16,21,9.80
2016,11,14,16,22,9.80
2016,11,14,16,23,9.80
2016,11,14,16,24,9.80
2016,11,14,16,25,9.80
2016,11,14,16,26,9.80
2016,11,14,16,27,9.80
2016,11,14,16,28,9.70
2016,11,14,16,29,9.70
2016,11,14,16,30,9.70
2016,11,14,16,31,9.70
2016,11,14,16,32,9.70
2016,11,14,16,33,9.70
2016,11,14,16,34,9.70
2016,11,14,16,35,9.70
2016,11,14,16,36,9.60
2016,11,14,16,37,9.60
2016,11,14,16,38,9.60
2016,11,14,16,39,9.60
2016,11,14,16,40,9.60
2016,11,14,16,41,9.60
2016,11,14,16,42,9.60
2016,11,14,16,43,9.60
2016,11,14,16,44,9.50
2016,11,14,16,45,9.50
2016,11,14,16,46,9.50
2016,11,14,16,47,9.50
2016,11,14,16,48,9.40
2016,11,14,16,49,9.40
2016,11,14,16,50,9.40
2016,11,14,16,51,9.40
2016,11,14,16,52,9.40
2016,11,14,16,53,9.40
2016,11,14,16,54,9.40
2016,11,14,16,55,9.40
2016,11,14,16,56,9.40
2016,11,14,16,57,9.30
2016,11,14,16,58,9.30
2016,11,14,16,59,9.30
2016,11,14,17,00,9.30
2016,11,14,17,01,9.30
2016,11,14,17,02,9.30
2016,11,14,17,03,9.30
2016,11,14,17,04,9.30
2016,11,14,17,05,9.30
2016,11,14,17,06,9.30
2016,11,14,17,07,9.30
2016,11,14,17,08,9.30
2016,11,14,17,09,9.20
2016,11,14,17,10,9.20
2016,11,14,17,11,9.20
2016,11,14,17,12,9.20
2016,11,14,17,13,9.20
2016,11,14,17,14,9.20
2016,11,14,17,15,9.20
2016,11,14,17,16,9.20
2016,11,14,17,17,9.20
2016,11,14,17,18,9.20
2016,11,14,17,19,9.10
2016,11,14,17,20,9.10
2016,11,14,17,21,9.10
2016,11,14,17,22,9.10
2016,11,14,17,23,9.10
2016,11,14,17,24,9.10
2016,11,14,17,25,9.10
2016,11,14,17,26,9.10
2016,11,14,17,27,9.10
2016,11,14,17,28,9.10
2016,11,14,17,29,9.10
2016,11,14,17,30,9.10
2016,11,14,17,31,9.00
2016,11,14,17,32,9.00
2016,11,14,17,33,9.00
2016,11,14,17,34,9.00
2016,11,14,17,35,9.00
2016,11,14,17,36,9.00
2016,11,14,17,37,9.00
2016,11,14,17,38,8.90
2016,11,14,17,39,8.90
2016,11,14,17,40,8.90
2016,11,14,17,41,8.90
2016,11,14,17,42,8.90
2016,11,14,17,43,8.90
2016,11,14,17,44,8.90
2016,11,14,17,45,8.80
2016,11,14,17,46,8.80
2016,11,14,17,47,8.80
2016,11,14,17,48,8.80
2016,11,14,17,49,8.80
2016,11,14,17,50,8.80
2016,11,14,17,51,8.80
2016,11,14,17,52,8.80
2016,11,14,17,53,8.80
2016,11,14,17,54,8.80